Time,TemperatureF,DewpointF,PressureIn,WindDirection,WindDirectionDegrees,WindSpeedMPH,WindSpeedGustMPH,Humidity,HourlyPrecipIn,Conditions,Clouds,dailyrainin,SoftwareType,DateUTC
2013-01-27 00:01:00,25.0,13.0,30.07,SSE,164,8.0,17.0,59,0.00,,,0.00,,2013-01-27 06:01:00,
2013-01-27 00:11:00,25.0,13.0,30.07,SSE,164,8.0,17.0,59,0.00,,,0.00,,2013-01-27 06:11:00,
2013-01-27 00:21:00,25.0,13.0,30.07,SE,136,7.0,15.0,59,0.00,,,0.00,,2013-01-27 06:21:00,
2013-01-27 00:32:00,26.0,14.0,30.06,SSE,158,7.0,14.0,59,0.00,,,0.00,,2013-01-27 06:32:00,
2013-01-27 00:42:00,26.0,14.0,30.06,SSE,158,7.0,14.0,59,0.00,,,0.00,,2013-01-27 06:42:00,
2013-01-27 00:52:00,26.0,14.0,30.06,SSE,150,6.0,14.0,59,0.00,,,0.00,,2013-01-27 06:52:00,
2013-01-27 01:01:00,26.0,14.0,30.05,SSE,152,7.0,15.0,59,0.00,,,0.00,,2013-01-27 07:01:00,
2013-01-27 01:14:00,26.0,14.0,30.05,SSE,152,7.0,15.0,59,0.00,,,0.00,,2013-01-27 07:14:00,
2013-01-27 01:21:00,26.0,14.0,30.05,SSE,152,7.0,15.0,59,0.00,,,0.00,,2013-01-27 07:21:00,
2013-01-27 01:31:00,26.0,14.0,30.04,SE,124,5.0,12.0,59,0.00,,,0.00,,2013-01-27 07:31:00,
2013-01-27 01:41:00,26.0,14.0,30.04,SE,124,5.0,12.0,59,0.00,,,0.00,,2013-01-27 07:41:00,
2013-01-27 01:52:00,26.0,14.0,30.04,South,175,6.0,11.0,60,0.00,,,0.00,,2013-01-27 07:52:00,
2013-01-27 02:01:00,27.0,15.0,30.03,SW,233,8.0,14.0,61,0.00,,,0.00,,2013-01-27 08:01:00,
2013-01-27 02:11:00,27.0,15.0,30.03,SW,233,8.0,14.0,61,0.00,,,0.00,,2013-01-27 08:11:00,
2013-01-27 02:22:00,27.0,15.0,30.03,SSE,153,6.0,11.0,61,0.00,,,0.00,,2013-01-27 08:22:00,
2013-01-27 02:31:00,27.0,15.0,30.03,SSE,153,6.0,11.0,61,0.00,,,0.00,,2013-01-27 08:31:00,
2013-01-27 02:42:00,27.0,15.0,30.03,SSE,153,6.0,11.0,61,0.00,,,0.00,,2013-01-27 08:42:00,
2013-01-27 02:52:00,27.0,15.0,30.03,SE,139,4.0,12.0,60,0.00,,,0.00,,2013-01-27 08:52:00,
2013-01-27 03:02:00,27.0,15.0,30.03,SW,223,4.0,14.0,60,0.00,,,0.00,,2013-01-27 09:02:00,
2013-01-27 03:11:00,27.0,15.0,30.03,SW,223,4.0,14.0,60,0.00,,,0.00,,2013-01-27 09:11:00,
2013-01-27 03:21:00,27.0,15.0,30.02,SE,138,5.0,14.0,60,0.00,,,0.00,,2013-01-27 09:21:00,
2013-01-27 03:32:00,27.0,15.0,30.01,SE,145,6.0,11.0,61,0.00,,,0.00,,2013-01-27 09:32:00,
2013-01-27 03:41:00,27.0,15.0,30.01,SE,145,6.0,11.0,61,0.00,,,0.00,,2013-01-27 09:41:00,
2013-01-27 03:51:00,27.0,15.0,30.00,SSE,167,6.0,12.0,61,0.00,,,0.00,,2013-01-27 09:51:00,
2013-01-27 04:01:00,27.0,15.0,30.00,SSE,167,6.0,12.0,61,0.00,,,0.00,,2013-01-27 10:01:00,
2013-01-27 04:11:00,27.0,15.0,30.00,SSE,167,6.0,12.0,61,0.00,,,0.00,,2013-01-27 10:11:00,
2013-01-27 04:21:00,28.0,16.0,29.98,SE,145,7.0,14.0,61,0.00,,,0.00,,2013-01-27 10:21:00,
2013-01-27 04:31:00,28.0,16.0,29.98,SSE,162,8.0,15.0,60,0.00,,,0.00,,2013-01-27 10:31:00,
2013-01-27 04:42:00,28.0,16.0,29.98,SSE,162,8.0,15.0,60,0.00,,,0.00,,2013-01-27 10:42:00,
2013-01-27 04:51:00,29.0,17.0,29.97,SSW,204,6.0,14.0,60,0.00,,,0.00,,2013-01-27 10:51:00,
2013-01-27 05:01:00,29.0,17.0,29.96,SSE,150,5.0,13.0,60,0.00,,,0.00,,2013-01-27 11:01:00,
2013-01-27 05:11:00,29.0,17.0,29.96,SSE,150,5.0,13.0,60,0.00,,,0.00,,2013-01-27 11:11:00,
2013-01-27 05:21:00,29.0,17.0,29.96,SSE,150,5.0,13.0,60,0.00,,,0.00,,2013-01-27 11:21:00,
2013-01-27 05:32:00,30.0,17.0,29.96,SE,141,7.0,18.0,59,0.00,,,0.00,,2013-01-27 11:32:00,
2013-01-27 05:42:00,30.0,17.0,29.96,SE,141,7.0,18.0,59,0.00,,,0.00,,2013-01-27 11:42:00,
2013-01-27 05:52:00,29.0,16.0,29.96,SSE,152,9.0,21.0,59,0.00,,,0.00,,2013-01-27 11:52:00,
2013-01-27 06:02:00,29.0,16.0,29.96,SSE,149,9.0,18.0,59,0.00,,,0.00,,2013-01-27 12:02:00,
2013-01-27 06:12:00,29.0,16.0,29.96,SSE,149,9.0,18.0,59,0.00,,,0.00,,2013-01-27 12:12:00,
2013-01-27 06:21:00,30.0,17.0,29.95,SSE,154,9.0,17.0,59,0.00,,,0.00,,2013-01-27 12:21:00,
2013-01-27 06:32:00,30.0,17.0,29.95,SSE,154,9.0,17.0,59,0.00,,,0.00,,2013-01-27 12:32:00,
2013-01-27 06:42:00,30.0,17.0,29.95,SSE,154,9.0,17.0,59,0.00,,,0.00,,2013-01-27 12:42:00,
2013-01-27 06:52:00,30.0,17.0,29.95,SSE,156,8.0,16.0,58,0.00,,,0.00,,2013-01-27 12:52:00,
2013-01-27 07:02:00,30.0,17.0,29.95,SE,143,4.0,12.0,59,0.00,,,0.00,,2013-01-27 13:02:00,
2013-01-27 07:11:00,30.0,17.0,29.95,SE,143,4.0,12.0,59,0.00,,,0.00,,2013-01-27 13:11:00,
2013-01-27 07:22:00,30.0,17.0,29.95,SW,222,7.0,14.0,59,0.00,,,0.00,,2013-01-27 13:22:00,
2013-01-27 07:32:00,30.0,17.0,29.95,ESE,121,8.0,15.0,59,0.00,,,0.00,,2013-01-27 13:32:00,
2013-01-27 07:42:00,30.0,17.0,29.95,ESE,121,8.0,15.0,59,0.00,,,0.00,,2013-01-27 13:42:00,
2013-01-27 07:52:00,30.0,17.0,29.95,ESE,121,8.0,15.0,59,0.00,,,0.00,,2013-01-27 13:52:00,
2013-01-27 08:02:00,30.0,17.0,29.95,ESE,121,8.0,15.0,59,0.00,,,0.00,,2013-01-27 14:02:00,
2013-01-27 08:11:00,30.0,17.0,29.95,ESE,121,8.0,15.0,59,0.00,,,0.00,,2013-01-27 14:11:00,
2013-01-27 08:22:00,31.0,18.0,29.93,SE,139,9.0,14.0,59,0.00,,,0.00,,2013-01-27 14:22:00,
2013-01-27 08:32:00,31.0,18.0,29.93,SE,135,8.0,14.0,59,0.00,,,0.00,,2013-01-27 14:32:00,
2013-01-27 08:42:00,31.0,18.0,29.93,SE,135,8.0,14.0,59,0.00,,,0.00,,2013-01-27 14:42:00,
2013-01-27 08:52:00,31.0,19.0,29.92,ESE,123,8.0,17.0,60,0.00,,,0.00,,2013-01-27 14:52:00,
2013-01-27 09:02:00,31.0,19.0,29.91,ENE,64,9.0,15.0,60,0.00,,,0.00,,2013-01-27 15:02:00,
2013-01-27 09:12:00,31.0,19.0,29.91,ENE,64,9.0,15.0,60,0.00,,,0.00,,2013-01-27 15:12:00,
2013-01-27 09:22:00,31.0,19.0,29.91,ENE,64,9.0,15.0,60,0.00,,,0.00,,2013-01-27 15:22:00,
2013-01-27 09:32:00,31.0,19.0,29.91,SSE,156,9.0,15.0,61,0.00,,,0.00,,2013-01-27 15:32:00,
2013-01-27 09:42:00,31.0,19.0,29.91,SSE,156,9.0,15.0,61,0.00,,,0.00,,2013-01-27 15:42:00,
2013-01-27 09:52:00,32.0,20.0,29.91,SE,146,8.0,16.0,61,0.00,,,0.00,,2013-01-27 15:52:00,
2013-01-27 10:02:00,32.0,20.0,29.90,SE,131,9.0,15.0,61,0.00,,,0.00,,2013-01-27 16:02:00,
2013-01-27 10:12:00,32.0,20.0,29.90,SE,131,9.0,15.0,61,0.00,,,0.00,,2013-01-27 16:12:00,
2013-01-27 10:21:00,32.0,21.0,29.89,SE,128,6.0,13.0,63,0.00,,,0.00,,2013-01-27 16:21:00,
2013-01-27 10:32:00,32.0,21.0,29.89,SE,128,6.0,13.0,63,0.00,,,0.00,,2013-01-27 16:32:00,
2013-01-27 10:42:00,32.0,21.0,29.89,SE,128,6.0,13.0,63,0.00,,,0.00,,2013-01-27 16:42:00,
2013-01-27 10:53:00,32.0,21.0,29.89,SE,143,8.0,13.0,64,0.00,,,0.00,,2013-01-27 16:53:00,
2013-01-27 11:02:00,32.0,22.0,29.89,ESE,108,8.0,13.0,66,0.00,,,0.00,,2013-01-27 17:02:00,
2013-01-27 11:12:00,32.0,22.0,29.89,ESE,108,8.0,13.0,66,0.00,,,0.00,,2013-01-27 17:12:00,
2013-01-27 11:22:00,32.0,25.0,29.90,SSE,155,6.0,10.0,74,0.00,,,0.00,,2013-01-27 17:22:00,
2013-01-27 11:32:00,31.0,26.0,29.89,ESE,110,6.0,13.0,80,0.00,,,0.00,,2013-01-27 17:32:00,
2013-01-27 11:42:00,31.0,26.0,29.89,ESE,110,6.0,13.0,80,0.00,,,0.00,,2013-01-27 17:42:00,
2013-01-27 11:53:00,31.0,26.0,29.89,ESE,110,6.0,13.0,80,0.00,,,0.00,,2013-01-27 17:53:00,
2013-01-27 12:02:00,31.0,28.0,29.95,ENE,72,7.0,12.0,88,0.02,,,0.02,,2013-01-27 18:02:00,
2013-01-27 12:11:00,31.0,28.0,29.95,ENE,72,7.0,12.0,88,0.02,,,0.02,,2013-01-27 18:11:00,
2013-01-27 12:22:00,31.0,28.0,29.93,ESE,106,6.0,12.0,90,0.04,,,0.04,,2013-01-27 18:22:00,
2013-01-27 12:32:00,31.0,29.0,29.92,ESE,115,7.0,12.0,91,0.07,,,0.07,,2013-01-27 18:32:00,
2013-01-27 12:42:00,31.0,29.0,29.92,ESE,115,7.0,12.0,91,0.07,,,0.07,,2013-01-27 18:42:00,
2013-01-27 12:52:00,31.0,29.0,29.91,ESE,121,6.0,10.0,91,0.09,,,0.10,,2013-01-27 18:52:00,
2013-01-27 13:02:00,31.0,29.0,29.91,ESE,121,6.0,10.0,91,0.09,,,0.10,,2013-01-27 19:02:00,
2013-01-27 13:11:00,31.0,29.0,29.91,ESE,121,6.0,10.0,91,0.09,,,0.10,,2013-01-27 19:11:00,
2013-01-27 13:22:00,31.0,29.0,29.90,ESE,116,5.0,12.0,91,0.07,,,0.11,,2013-01-27 19:22:00,
2013-01-27 13:32:00,31.0,29.0,29.89,SSE,153,6.0,10.0,91,0.05,,,0.11,,2013-01-27 19:32:00,
2013-01-27 13:42:00,31.0,29.0,29.89,SSE,153,6.0,10.0,91,0.05,,,0.11,,2013-01-27 19:42:00,
2013-01-27 13:52:00,31.0,29.0,29.88,ESE,120,5.0,8.0,92,0.02,,,0.11,,2013-01-27 19:52:00,
2013-01-27 14:02:00,31.0,29.0,29.87,ESE,115,5.0,7.0,93,0.01,,,0.11,,2013-01-27 20:02:00,
2013-01-27 14:11:00,31.0,29.0,29.87,ESE,115,5.0,7.0,93,0.01,,,0.11,,2013-01-27 20:11:00,
2013-01-27 14:22:00,31.0,29.0,29.87,ESE,115,5.0,7.0,93,0.01,,,0.11,,2013-01-27 20:22:00,
2013-01-27 14:33:00,31.0,29.0,29.86,SE,132,4.0,8.0,94,0.00,,,0.11,,2013-01-27 20:33:00,
2013-01-27 14:42:00,31.0,29.0,29.86,SE,132,4.0,8.0,94,0.00,,,0.11,,2013-01-27 20:42:00,
2013-01-27 14:52:00,31.0,30.0,29.85,ESE,108,3.0,6.0,95,0.00,,,0.11,,2013-01-27 20:52:00,
2013-01-27 15:02:00,31.0,30.0,29.85,SSW,197,3.0,5.0,95,0.00,,,0.11,,2013-01-27 21:02:00,
2013-01-27 15:12:00,31.0,30.0,29.85,SSW,197,3.0,5.0,95,0.00,,,0.11,,2013-01-27 21:12:00,
2013-01-27 15:22:00,31.0,30.0,29.84,SSW,197,4.0,7.0,95,0.00,,,0.11,,2013-01-27 21:22:00,
2013-01-27 15:33:00,31.0,30.0,29.84,SSW,197,4.0,7.0,95,0.00,,,0.11,,2013-01-27 21:33:00,
2013-01-27 15:42:00,31.0,30.0,29.84,SSW,197,4.0,7.0,95,0.00,,,0.11,,2013-01-27 21:42:00,
2013-01-27 15:52:00,31.0,30.0,29.83,SSW,197,3.0,6.0,96,0.00,,,0.11,,2013-01-27 21:52:00,
2013-01-27 16:02:00,31.0,30.0,29.84,SSW,197,2.0,5.0,96,0.00,,,0.11,,2013-01-27 22:02:00,
2013-01-27 16:12:00,31.0,30.0,29.84,SSW,197,2.0,5.0,96,0.00,,,0.11,,2013-01-27 22:12:00,
2013-01-27 16:22:00,31.0,30.0,29.84,SSW,197,2.0,4.0,96,0.00,,,0.11,,2013-01-27 22:22:00,
2013-01-27 16:32:00,31.0,30.0,29.83,SSW,197,3.0,6.0,96,0.00,,,0.11,,2013-01-27 22:32:00,
2013-01-27 16:42:00,31.0,30.0,29.83,SSW,197,3.0,6.0,96,0.00,,,0.11,,2013-01-27 22:42:00,
2013-01-27 16:52:00,31.0,30.0,29.83,SSW,197,3.0,6.0,96,0.00,,,0.11,,2013-01-27 22:52:00,
2013-01-27 17:02:00,31.0,30.0,29.83,SSW,197,2.0,4.0,96,0.00,,,0.11,,2013-01-27 23:02:00,
2013-01-27 17:12:00,31.0,30.0,29.83,SSW,197,2.0,4.0,96,0.00,,,0.11,,2013-01-27 23:12:00,
2013-01-27 17:21:00,31.0,30.0,29.83,SSW,197,3.0,6.0,96,0.00,,,0.11,,2013-01-27 23:21:00,
2013-01-27 17:32:00,31.0,30.0,29.83,SSW,197,2.0,5.0,96,0.00,,,0.11,,2013-01-27 23:32:00,
2013-01-27 17:42:00,31.0,30.0,29.83,SSW,197,2.0,5.0,96,0.00,,,0.11,,2013-01-27 23:42:00,
2013-01-27 17:52:00,31.0,30.0,29.82,SSW,197,2.0,5.0,96,0.00,,,0.11,,2013-01-27 23:52:00,
2013-01-27 18:02:00,31.0,30.0,29.81,SSW,196,2.0,4.0,96,0.00,,,0.11,,2013-01-28 00:02:00,
2013-01-27 18:11:00,31.0,30.0,29.81,SSW,196,2.0,4.0,96,0.00,,,0.11,,2013-01-28 00:11:00,
2013-01-27 18:21:00,31.0,30.0,29.81,SSW,196,2.0,4.0,96,0.00,,,0.11,,2013-01-28 00:21:00,
2013-01-27 18:32:00,31.0,30.0,29.82,SSW,197,2.0,4.0,96,0.00,,,0.11,,2013-01-28 00:32:00,
2013-01-27 18:42:00,31.0,30.0,29.82,SSW,197,2.0,4.0,96,0.00,,,0.11,,2013-01-28 00:42:00,
2013-01-27 18:52:00,31.0,30.0,29.82,SSW,197,3.0,4.0,96,0.00,,,0.11,,2013-01-28 00:52:00,
2013-01-27 19:02:00,32.0,31.0,29.82,SSW,197,1.0,3.0,96,0.00,,,0.11,,2013-01-28 01:02:00,
2013-01-27 19:11:00,32.0,31.0,29.82,SSW,197,1.0,3.0,96,0.00,,,0.11,,2013-01-28 01:11:00,
2013-01-27 19:22:00,31.0,30.0,29.82,SSW,197,1.0,3.0,96,0.00,,,0.11,,2013-01-28 01:22:00,
2013-01-27 19:33:00,31.0,30.0,29.82,SSW,197,1.0,3.0,96,0.00,,,0.11,,2013-01-28 01:33:00,
2013-01-27 19:42:00,31.0,30.0,29.82,SSW,197,1.0,3.0,96,0.00,,,0.11,,2013-01-28 01:42:00,
2013-01-27 19:52:00,31.0,30.0,29.82,SSW,197,1.0,3.0,96,0.00,,,0.11,,2013-01-28 01:52:00,
2013-01-27 20:02:00,31.0,30.0,29.82,SSW,197,1.0,2.0,96,0.00,,,0.11,,2013-01-28 02:02:00,
2013-01-27 20:11:00,31.0,30.0,29.82,SSW,197,1.0,2.0,96,0.00,,,0.11,,2013-01-28 02:11:00,
2013-01-27 20:22:00,31.0,30.0,29.81,SSW,197,1.0,1.0,96,0.00,,,0.11,,2013-01-28 02:22:00,
2013-01-27 20:32:00,31.0,30.0,29.80,SSW,197,0.0,2.0,96,0.00,,,0.11,,2013-01-28 02:32:00,
2013-01-27 20:42:00,31.0,30.0,29.80,SSW,197,0.0,2.0,96,0.00,,,0.11,,2013-01-28 02:42:00,
2013-01-27 20:52:00,31.0,30.0,29.80,SSW,197,0.0,2.0,96,0.00,,,0.11,,2013-01-28 02:52:00,
2013-01-27 21:02:00,31.0,30.0,29.80,SSW,197,1.0,2.0,96,0.00,,,0.11,,2013-01-28 03:02:00,
2013-01-27 21:12:00,31.0,30.0,29.80,SSW,197,1.0,2.0,96,0.00,,,0.11,,2013-01-28 03:12:00,
2013-01-27 21:22:00,31.0,30.0,29.80,SSW,196,0.0,2.0,96,0.00,,,0.11,,2013-01-28 03:22:00,
2013-01-27 21:32:00,31.0,30.0,29.80,SSW,197,0.0,1.0,96,0.00,,,0.11,,2013-01-28 03:32:00,
2013-01-27 21:42:00,31.0,30.0,29.80,SSW,197,0.0,1.0,96,0.00,,,0.11,,2013-01-28 03:42:00,
2013-01-27 21:52:00,31.0,30.0,29.80,SSW,197,1.0,1.0,96,0.00,,,0.11,,2013-01-28 03:52:00,
2013-01-27 22:02:00,31.0,30.0,29.80,SSW,197,1.0,1.0,96,0.00,,,0.11,,2013-01-28 04:02:00,
2013-01-27 22:11:00,31.0,30.0,29.80,SSW,197,1.0,1.0,96,0.00,,,0.11,,2013-01-28 04:11:00,
2013-01-27 22:22:00,31.0,30.0,29.79,SSW,197,1.0,1.0,96,0.00,,,0.11,,2013-01-28 04:22:00,
2013-01-27 22:32:00,31.0,30.0,29.79,SSW,197,0.0,1.0,96,0.00,,,0.11,,2013-01-28 04:32:00,
2013-01-27 22:42:00,31.0,30.0,29.79,SSW,197,0.0,1.0,96,0.00,,,0.11,,2013-01-28 04:42:00,
2013-01-27 22:52:00,31.0,30.0,29.80,SSW,197,0.0,1.0,96,0.00,,,0.11,,2013-01-28 04:52:00,
2013-01-27 23:04:00,31.0,30.0,29.79,SSW,196,0.0,1.0,96,0.00,,,0.11,,2013-01-28 05:04:00,
2013-01-27 23:11:00,31.0,30.0,29.79,SSW,196,0.0,1.0,96,0.00,,,0.11,,2013-01-28 05:11:00,
2013-01-27 23:21:00,31.0,30.0,29.79,SSW,197,0.0,1.0,96,0.00,,,0.11,,2013-01-28 05:21:00,
2013-01-27 23:32:00,31.0,30.0,29.79,SSW,197,0.0,1.0,96,0.00,,,0.11,,2013-01-28 05:32:00,
2013-01-27 23:41:00,31.0,30.0,29.79,SSW,197,0.0,1.0,96,0.00,,,0.11,,2013-01-28 05:41:00,
2013-01-27 23:52:00,31.0,30.0,29.80,SSW,197,0.0,1.0,96,0.00,,,0.11,,2013-01-28 05:52:00,